Regional Weather Roundup
Issued by NWS Jackson, KY

Home | Current Version | Previous Version | Text Only | Print | Product List | Glossary On
Versions: 1 2 3 4 5 6 7 8 9 10 11 12 13 14 15 16 17 18 19 20 21 22 23 24 25 26 27 28
000
ASUS43 KJKL 030110
RWRJKL

EAST KENTUCKY HOURLY WEATHER ROUNDUP
NATIONAL WEATHER SERVICE JACKSON KY
800 PM EST FRI DEC 02 2016

NOTE: "FAIR" INDICATES FEW OR NO CLOUDS BELOW 12,000 FEET WITH
NO SIGNIFICANT WEATHER AND/OR OBSTRUCTIONS TO VISIBILITY.

* THESE REPORTS ARE NOT UNDER NWS QUALITY CONTROL AND MAY NOT
  REPORT WEATHER SUCH AS PRECIPITATION AND FOG.

KYZ079-080-083-085-087-088-110-112-115-119-120-030200
...EASTERN KENTUCKY...

CITY           SKY/WX    TMP DP  RH WIND       PRES   REMARKS
JACKSON        PTCLDY    36  28  73 VRB5      30.27R WCI  32
LONDON         CLEAR     40  28  62 NW6       30.27R
SOMERSET*      PTCLDY    39  28  65 CALM      30.30R
MONTICELLO*    CLEAR     36  28  73 NW6       30.29R WCI  31
WILLIAMSBURG*  CLEAR     39  28  65 NW3       30.27R
MIDDLESBORO*   CLEAR     35  31  83 CALM      30.27R
HARLAN APT*    PTCLDY    37  28  70 CALM      30.25R
PIKE CO APT*     N/A     35  29  80 N5        30.26R WCI  31
MOREHEAD APT*  CLOUDY    39  27  60 W5        30.31R
ASHLAND*       CLOUDY    39  28  65 W3        30.27S
$$

KYZ035-036-041-042-044-050-067-078-099-030200
...CENTRAL KENTUCKY...

CITY           SKY/WX    TMP DP  RH WIND       PRES   REMARKS
MT STERLING*   CLOUDY    37  32  81 N3        30.31R
FLEMING/MASON* CLOUDY    37  29  73 W7        30.30R WCI  32
DANVILLE*      CLEAR     32  28  86 CALM      30.30S
LEXINGTON      CLOUDY    40  29  64 N6        30.30R
FRANKFORT      CLOUDY    41  29  62 CALM      30.30R
LOUISVILLE     CLOUDY    44  28  53 NW8       30.31R
LEBANON*         N/A     37  28  70 CALM      30.30S
GLASGOW*       MOCLDY    41  31  66 N6        30.29S
BOWLING GREEN  CLEAR     45  30  55 N5        30.30R
$$

KYZ091>093-OHZ055-061-077-WVZ005-015-034-035-042-030200
...SOUTHERN OHIO/WEST VIRGINIA...

CITY           SKY/WX    TMP DP  RH WIND       PRES   REMARKS
COVINGTON      CLOUDY    39  30  70 W10       30.28R WCI  32
COLUMBUS       CLOUDY    38  31  76 W13       30.23R WCI  30
DAYTON         CLOUDY    37  31  78 W10       30.27R WCI  30
WILMINGTON     CLOUDY    37  31  78 W8        30.26R WCI  31
HUNTINGTON     CLOUDY    39  28  64 SW6       30.28R WCI  35
CHARLESTON     CLOUDY    38  28  67 W8        30.27R WCI  32
PINEVILLE*       N/A     38  27  66 MISG      30.28R
BECKLEY        CLOUDY    33  26  75 NW15G22   30.20R WCI  23
BLUEFIELD      PTCLDY    32  26  78 NW12G20   30.17R WCI  23
LOGAN CO APT*  CLOUDY    36  27  69 CALM      30.25R
$$

VAZ002-007-008-TNZ017-027-036-066-071-030200
...SOUTHWEST VIRGINIA/EAST TENNESSEE...

CITY           SKY/WX    TMP DP  RH WIND       PRES   REMARKS
WISE*          PTCLDY    37  28  70 NW5       30.21R WCI  34
JONESVILLE*      N/A     39  28  65 CALM      30.27R
ABINGDON*      CLEAR     40  25  54 CALM      30.19S
BRISTOL        CLEAR     38  28  67 SW7       30.22R WCI  33
MORRISTOWN*    PTCLDY    46  30  53 W7        30.24R
SEVIERVILLE*   CLEAR     39  30  70 CALM      30.25R
KNOXVILLE      CLEAR     44  30  57 SW5       30.25R
OAK RIDGE      CLEAR     44  32  62 CALM      30.27R
CROSSVILLE     CLEAR     43  26  51 W6        30.26S
NASHVILLE      PTCLDY    49  26  41 N6        30.29S
$$

...KEY TO REMARKS...
VSB - VISIBILITY IN MILES
WCI - WIND CHILL INDEX
HX  - HEAT INDEX

$$




USA.gov is the U.S. government's official web portal to all federal, state and local government web resources and services.